This is the latest recevied weather packets stored in our database for station/object OK2ZA-6. If no packets are shown the sender has not sent any weather packets the latest 10 day(s).
| Time | Temp. | Humidity | Pressure | Rain* | Wind** | Luminosity | Snow |
|---|---|---|---|---|---|---|---|
| 1777729203 | 22.22° C | 34% | 1021.4 hPa | 0 mm | - | - | - |
| 1777728604 | 22.22° C | 32% | 1021.6 hPa | 0 mm | - | - | - |
| 1777728004 | 21.67° C | 33% | 1021.7 hPa | 0 mm | - | - | - |
| 1777727405 | 21.11° C | 34% | 1021.8 hPa | 0 mm | - | - | - |
| 1777726804 | 22.22° C | 33% | 1021.9 hPa | 0 mm | - | - | - |
| 1777726204 | 21.67° C | 32% | 1022 hPa | 0 mm | - | - | - |
| 1777725604 | 21.11° C | 33% | 1022.2 hPa | 0 mm | - | - | - |
| 1777725004 | 21.11° C | 37% | 1022.3 hPa | 0 mm | - | - | - |
| 1777724404 | 21.11° C | 38% | 1022.4 hPa | 0 mm | - | - | - |
| 1777723804 | 21.67° C | 35% | 1022.2 hPa | 0 mm | - | - | - |
| 1777723204 | 22.22° C | 34% | 1022.6 hPa | 0 mm | - | - | - |
| 1777722603 | 21.67° C | 32% | 1022.7 hPa | 0 mm | - | - | - |
| 1777722003 | 21.67° C | 34% | 1022.8 hPa | 0 mm | - | - | - |
| 1777721404 | 21.11° C | 33% | 1023 hPa | 0 mm | - | - | - |
| 1777720804 | 20.56° C | 33% | 1023.1 hPa | 0 mm | - | - | - |
| 1777720208 | 20.56° C | 32% | 1023.3 hPa | 0 mm | - | - | - |
| 1777719603 | 20.56° C | 37% | 1023.3 hPa | 0 mm | - | - | - |
| 1777719004 | 21.11° C | 33% | 1023.5 hPa | 0 mm | - | - | - |
| 1777718404 | 20° C | 36% | 1023.6 hPa | 0 mm | - | - | - |
| 1777717804 | 20° C | 37% | 1023.7 hPa | 0 mm | - | - | - |
| 1777717203 | 20° C | 39% | 1023.8 hPa | 0 mm | - | - | - |
| 1777716603 | 20° C | 39% | 1023.9 hPa | 0 mm | - | - | - |
| 1777716004 | 20° C | 37% | 1024 hPa | 0 mm | - | - | - |
| 1777715403 | 19.44° C | 38% | 1024.1 hPa | 0 mm | - | - | - |
| 1777714804 | 19.44° C | 39% | 1024.2 hPa | 0 mm | - | - | - |
* Rain latest hour (hover to see other rain measurements)
** Current wind speed in m/s (hover to see current wind gust speed)